Regional Weather Roundup
Issued by NWS Newport/Morehead, NC

Current Version | Previous Version | Graphics & Text | Print | Product List | Glossary Off
Versions: 1 2 3 4 5 6 7 8 9 10 11 12 13 14 15 16 17 18 19 20 21 22 23 24 25 26 27 28 29 30 31 32 33 34 35 36 37 38 39 40 41 42 43 44 45 46 47 48 49 50

000
ASUS42 KMHX 191614
RWRMHX
WEATHER ROUNDUP FOR EASTERN NORTH CAROLINA
NATIONAL WEATHER SERVICE NEWPORT/MOREHEAD CITY NC
1200 PM EDT SAT MAY 19 2018

NOTE: "FAIR" INDICATES FEW OR NO CLOUDS BELOW 12,000 FEET
WITH NO SIGNIFICANT WEATHER AND/OR OBSTRUCTIONS TO VISIBILITY

NCZ015>017-031-032-045>047-102-103-191700-
NORTH COAST

CITY           SKY/WX    TMP DP  RH WIND       PRES   REMARKS
EDENTON        PTSUNNY   84  73  70 S15G21    30.17F
ELIZABETH CITY FAIR      81  73  76 S10       30.17S
KITTY HAWK     FAIR      80  70  71 S7G18     30.18S
MANTEO         FAIR      79  72  78 S17G24    30.19F

$$

NCZ045>047-081-094-103-104-191700-
CENTRAL COAST

CITY           SKY/WX    TMP DP  RH WIND       PRES   REMARKS
FRISCO         PTSUNNY   79  72  79 S12       30.21S

$$

NCZ095-097-098-100-101-191700-
SOUTHERN COAST

CITY           SKY/WX    TMP DP  RH WIND       PRES   REMARKS
BEAUFORT       PTSUNNY   80  74  81 S15G21    30.19S
CEDAR ISLAND   NOT AVBL
JACKSONVILLE   PTSUNNY   79  72  79 S18G28    30.16S
PINEY ISLAND   NOT AVBL
WILMINGTON     HVY RAIN  72  68  87 SW6       30.16R FOG


$$

NCZ011>013-027>030-043-044-078>080-089-090>093-098-191700-
COASTAL PLAIN

CITY           SKY/WX    TMP DP  RH WIND       PRES   REMARKS
AHOSKIE        LGT RAIN  74  72  95 S6        30.17S
CLINTON        CLOUDY    71  71 100 CALM      30.16S
ELIZABETHTOWN  LGT RAIN  73  71  95 S7        30.15S
GOLDSBORO      LGT RAIN  77  72  83 S5        30.16S
GREENVILLE     FAIR      77  73  88 SW3       30.16F
HAVELOCK       NOT AVBL
KENANSVILLE    RAIN      70  68  94 S6        30.17S FOG
KINSTON        CLOUDY    75  73  94 S5        30.17S
NEW BERN       FAIR      80  70  71 S21G26    30.18S
RICHLANDS      CLOUDY    76  73  91 S8        30.17R
ROCKY MOUNT    LGT RAIN  73  72  96 SW3       30.15F FOG
WASHINGTON     FAIR      82  71  68 S9G17     30.16F
WHITEVILLE     DRIZZLE   73  71  92 S7        30.14S

$$

AMZ130-135-150-152-154-156-158-170-250-252-270-ANZ085-086-088-633-658-670-191700-
MARINE OBSERVATIONS

STATION/POSITION TIME  TEMP    WIND        PRES    WAVE   SWELL
                       AIR SEA DIR/SP/G            HT/PER HT/PER
                 (UTC) (F)     (DEG/KT/KT) (MB)    (FT/S) (FT/S)
CHESAPEAKE LIGHT NOT AVBL
64 E VA BEACH    1550   66 63  160/  8/ 10 1023.4    6/ 8   5/ 8
DUCK             1548   78 63  180/ 15/ 19 1021.4
2 E DUCK         1600      63                N/A     4/ 7
OREGON INLET     1542   77 73  180/ 14/ 17 1022.6
13E OREGON INLT  1548      67                N/A     6/ 7   5/ 7
HATTERAS CG      1548   77 73  180/  9/ 12 1022.6
DIAMOND BUOY     1600   77 74  170/ 17/ 21 1023.3
CAPE LOOKOUT     1600          170/ 14/ 16 1022.6
BEAUFORT LAB     1548   77 75  180/ 13/ 15 1022.5
30 SE NEW RVR IN 1508   77     170/ 14/ 17 1021.7
30 SE NEW RVR IN 1600      76                N/A     7/ 6
27 SE WRIGHTSVLE 1508   75 73  170/ 14/ 19 1021.6
5 SE WRIGHTSVLE  NOT AVBL
225 S CAPE HAT   1550      76  140/ 17/ 21 1023.8    5/ 8   3/ 8
41 SE CHARLESTON 1550      75  220/ 10/ 14 1020.0    6/ 7   3/ 9

$$




USA.gov is the U.S. government's official web portal to all federal, state and local government web resources and services.